| time (UTC) | temp F | wind direction | speed MPH | gust MPH | rain 1hr in | rain 24hr in | rain mn in | humidity % | barometer mb |
| 20260505054524 | 69 | 46 | 0.0 | 5.0 | 0.00 | 0.00 | 0.00 | 71 | 1002.5 |
| 20260505054010 | 69 | 55 | 0.0 | 5.0 | 0.00 | 0.00 | 0.00 | 71 | 1002.3 |
| 20260505053510 | 70 | 23 | 0.0 | 6.0 | 0.00 | 0.00 | 0.00 | 70 | 1002.2 |
| 20260505053036 | 70 | 327 | 0.0 | 6.0 | 0.00 | 0.00 | 0.00 | 69 | 1002.1 |
| 20260505052507 | 70 | 278 | 1.0 | 8.0 | 0.00 | 0.00 | 0.00 | 68 | 1001.9 |
| 20260505052013 | 70 | 283 | 2.0 | 8.0 | 0.00 | 0.00 | 0.00 | 67 | 1001.8 |
| 20260505051537 | 70 | 248 | 2.0 | 7.0 | 0.00 | 0.00 | 0.00 | 68 | 1001.6 |
| 20260505051007 | 70 | 248 | 2.0 | 7.0 | 0.00 | 0.00 | 0.00 | 68 | 1001.6 |
| 20260505050504 | 69 | 245 | 2.0 | 10.0 | 0.00 | 0.00 | 0.00 | 70 | 1001.5 |
| 20260505041527 | 69 | 275 | 0.0 | 2.0 | 0.00 | 0.00 | 0.00 | 73 | 1001.7 |
| 20260505041015 | 69 | 275 | 0.0 | 4.0 | 0.00 | 0.00 | 0.00 | 73 | 1001.7 |
| 20260505040512 | 70 | 270 | 0.0 | 4.0 | 0.00 | 0.00 | 0.00 | 72 | 1001.7 |
| 20260505040029 | 70 | 200 | 0.0 | 3.0 | 0.00 | 0.00 | 0.00 | 72 | 1002.0 |
| 20260505035515 | 70 | 279 | 0.0 | 0.0 | 0.00 | 0.00 | 0.00 | 71 | 1002.1 |
| 20260505035007 | 71 | 279 | 0.0 | 0.0 | 0.00 | 0.00 | 0.00 | 70 | 1002.0 |
| 20260505034519 | 71 | 279 | 0.0 | 0.0 | 0.00 | 0.00 | 0.00 | 70 | 1001.8 |
| 20260505034015 | 71 | 279 | 0.0 | 0.0 | 0.00 | 0.00 | 0.00 | 68 | 1001.8 |
| 20260505033506 | 72 | 279 | 0.0 | 3.0 | 0.00 | 0.00 | 0.00 | 68 | 1001.8 |
| 20260505033020 | 72 | 265 | 0.0 | 4.0 | 0.00 | 0.00 | 0.00 | 68 | 1002.1 |
| 20260505032508 | 72 | 304 | 0.0 | 4.0 | 0.00 | 0.00 | 0.00 | 68 | 1001.9 |
| 20260505032008 | 72 | 280 | 0.0 | 6.0 | 0.00 | 0.00 | 0.00 | 67 | 1002.0 |
| 20260505031531 | 72 | 293 | 2.0 | 6.0 | 0.00 | 0.00 | 0.00 | 67 | 1002.1 |
| 20260505031006 | 72 | 286 | 1.0 | 6.0 | 0.00 | 0.00 | 0.00 | 67 | 1002.1 |
| 20260505030505 | 72 | 263 | 0.0 | 6.0 | 0.00 | 0.00 | 0.00 | 66 | 1002.1 |
| 20260505030006 | 72 | 307 | 0.0 | 4.0 | 0.00 | 0.00 | 0.00 | 66 | 1002.1 |
| 20260505025503 | 72 | 262 | 0.0 | 4.0 | 0.00 | 0.00 | 0.00 | 66 | 1002.1 |
| 20260505025004 | 73 | 173 | 0.0 | 2.0 | 0.00 | 0.00 | 0.00 | 66 | 1002.3 |
| 20260505024507 | 73 | 285 | 0.0 | 2.0 | 0.00 | 0.00 | 0.00 | 65 | 1002.3 |
| 20260505024003 | 73 | 17 | 0.0 | 3.0 | 0.00 | 0.00 | 0.00 | 65 | 1002.1 |
| 20260505023502 | 73 | 315 | 0.0 | 4.0 | 0.00 | 0.00 | 0.00 | 64 | 1002.0 |
| 20260505023011 | 73 | 265 | 0.0 | 4.0 | 0.00 | 0.00 | 0.00 | 63 | 1002.1 |
| 20260505022502 | 73 | 294 | 0.0 | 4.0 | 0.00 | 0.00 | 0.00 | 63 | 1002.2 |
| 20260505022002 | 74 | 266 | 0.0 | 4.0 | 0.00 | 0.00 | 0.00 | 63 | 1002.2 |
| 20260505021504 | 74 | 311 | 1.0 | 4.0 | 0.00 | 0.00 | 0.00 | 62 | 1002.1 |
| 20260505021004 | 74 | 284 | 1.0 | 4.0 | 0.00 | 0.00 | 0.00 | 62 | 1002.2 |
| 20260505020503 | 74 | 253 | 1.0 | 6.0 | 0.00 | 0.00 | 0.00 | 61 | 1002.4 |
| 20260505020004 | 74 | 276 | 1.0 | 6.0 | 0.00 | 0.00 | 0.00 | 61 | 1002.3 |
| 20260505015503 | 74 | 259 | 1.0 | 3.0 | 0.00 | 0.00 | 0.00 | 60 | 1002.2 |
| 20260505015003 | 74 | 286 | 0.0 | 4.0 | 0.00 | 0.00 | 0.00 | 60 | 1001.8 |
| 20260505014505 | 74 | 291 | 1.0 | 4.0 | 0.00 | 0.00 | 0.00 | 59 | 1001.6 |
| 20260505014002 | 74 | 297 | 0.0 | 7.0 | 0.00 | 0.00 | 0.00 | 59 | 1001.7 |
| 20260505013503 | 75 | 254 | 1.0 | 7.0 | 0.00 | 0.00 | 0.00 | 58 | 1001.6 |
| 20260505013006 | 75 | 205 | 1.0 | 6.0 | 0.00 | 0.00 | 0.00 | 57 | 1001.6 |
| 20260505012502 | 75 | 229 | 1.0 | 6.0 | 0.00 | 0.00 | 0.00 | 56 | 1001.5 |
| 20260505012004 | 75 | 347 | 1.0 | 7.0 | 0.00 | 0.00 | 0.00 | 56 | 1001.4 |
| 20260505011509 | 75 | 269 | 2.0 | 7.0 | 0.00 | 0.00 | 0.00 | 56 | 1001.3 |
| 20260505011003 | 75 | 276 | 0.0 | 6.0 | 0.00 | 0.00 | 0.00 | 55 | 1001.5 |
| 20260505010502 | 76 | 263 | 0.0 | 6.0 | 0.00 | 0.00 | 0.00 | 55 | 1001.3 |
| 20260505010014 | 76 | 266 | 0.0 | 7.0 | 0.00 | 0.00 | 0.00 | 55 | 1001.2 |
| 20260505005503 | 76 | 274 | 2.0 | 7.0 | 0.00 | 0.00 | 0.00 | 54 | 1001.4 |
| 20260505005004 | 76 | 285 | 1.0 | 7.0 | 0.00 | 0.00 | 0.00 | 54 | 1001.1 |
| 20260505004506 | 77 | 202 | 0.0 | 4.0 | 0.00 | 0.00 | 0.00 | 53 | 1001.2 |
| 20260505004003 | 77 | 300 | 1.0 | 4.0 | 0.00 | 0.00 | 0.00 | 52 | 1001.3 |
| 20260505003502 | 77 | 268 | 0.0 | 6.0 | 0.00 | 0.00 | 0.00 | 52 | 1001.3 |
| 20260505003009 | 78 | 265 | 0.0 | 6.0 | 0.00 | 0.00 | 0.00 | 51 | 1001.3 |
| 20260505002504 | 78 | 265 | 1.0 | 5.0 | 0.00 | 0.00 | 0.00 | 51 | 1001.3 |
| 20260505002004 | 78 | 286 | 0.0 | 5.0 | 0.00 | 0.00 | 0.00 | 51 | 1001.4 |
| 20260505001508 | 78 | 300 | 0.0 | 6.0 | 0.00 | 0.00 | 0.00 | 51 | 1001.4 |
| 20260505001003 | 78 | 252 | 2.0 | 6.0 | 0.00 | 0.00 | 0.00 | 49 | 1001.3 |
| 20260505000505 | 79 | 261 | 1.0 | 6.0 | 0.00 | 0.00 | 0.00 | 49 | 1001.3 |
| 20260505000008 | 79 | 349 | 1.0 | 7.0 | 0.00 | 0.00 | 0.00 | 49 | 1001.3 |
| 20260504235502 | 79 | 182 | 1.0 | 8.0 | 0.00 | 0.00 | 0.00 | 48 | 1001.4 |
| 20260504235003 | 79 | 242 | 2.0 | 8.0 | 0.00 | 0.00 | 0.00 | 48 | 1001.5 |
| 20260504234507 | 79 | 289 | 0.0 | 6.0 | 0.00 | 0.00 | 0.00 | 47 | 1001.6 |
| 20260504234004 | 79 | 190 | 0.0 | 7.0 | 0.00 | 0.00 | 0.00 | 47 | 1001.6 |
| 20260504233503 | 79 | 265 | 3.0 | 13.0 | 0.00 | 0.00 | 0.00 | 46 | 1001.6 |
| 20260504233008 | 80 | 194 | 3.0 | 13.0 | 0.00 | 0.00 | 0.00 | 47 | 1001.7 |
| 20260504232505 | 80 | 232 | 1.0 | 10.0 | 0.00 | 0.00 | 0.00 | 47 | 1001.8 |
| 20260504232008 | 80 | 200 | 4.0 | 10.0 | 0.00 | 0.00 | 0.00 | 45 | 1001.7 |
| 20260504231510 | 80 | 257 | 3.0 | 9.0 | 0.00 | 0.00 | 0.00 | 45 | 1001.7 |
| 20260504231004 | 80 | 215 | 2.0 | 10.0 | 0.00 | 0.00 | 0.00 | 44 | 1001.5 |
| 20260504230504 | 81 | 265 | 1.0 | 10.0 | 0.00 | 0.00 | 0.00 | 43 | 1001.5 |
| 20260504230009 | 81 | 134 | 3.0 | 10.0 | 0.00 | 0.00 | 0.00 | 43 | 1001.7 |
| 20260504225504 | 81 | 232 | 4.0 | 10.0 | 0.00 | 0.00 | 0.00 | 42 | 1001.7 |
| 20260504225005 | 81 | 263 | 2.0 | 10.0 | 0.00 | 0.00 | 0.00 | 43 | 1001.5 |
| 20260504224511 | 81 | 266 | 2.0 | 10.0 | 0.00 | 0.00 | 0.00 | 43 | 1001.6 |
| 20260504224004 | 81 | 288 | 2.0 | 9.0 | 0.00 | 0.00 | 0.00 | 42 | 1001.6 |
| 20260504223503 | 82 | 244 | 2.0 | 11.0 | 0.00 | 0.00 | 0.00 | 42 | 1001.5 |
| 20260504223008 | 82 | 247 | 2.0 | 11.0 | 0.00 | 0.00 | 0.00 | 41 | 1001.7 |
| 20260504222504 | 82 | 142 | 4.0 | 11.0 | 0.00 | 0.00 | 0.00 | 41 | 1001.6 |
| 20260504222003 | 83 | 239 | 1.0 | 12.0 | 0.00 | 0.00 | 0.00 | 41 | 1001.5 |
| 20260504221520 | 83 | 264 | 4.0 | 12.0 | 0.00 | 0.00 | 0.00 | 40 | 1001.6 |
| 20260504221004 | 84 | 221 | 3.0 | 9.0 | 0.00 | 0.00 | 0.00 | 39 | 1001.5 |
| 20260504220504 | 84 | 263 | 2.0 | 15.0 | 0.00 | 0.00 | 0.00 | 40 | 1001.6 |
| 20260504220010 | 84 | 170 | 4.0 | 15.0 | 0.00 | 0.00 | 0.00 | 39 | 1001.8 |
| 20260504215507 | 84 | 246 | 3.0 | 13.0 | 0.00 | 0.00 | 0.00 | 39 | 1001.8 |
| 20260504215009 | 84 | 300 | 3.0 | 13.0 | 0.00 | 0.00 | 0.00 | 40 | 1001.8 |
| 20260504214512 | 84 | 180 | 5.0 | 13.0 | 0.00 | 0.00 | 0.00 | 38 | 1001.9 |
| 20260504214003 | 84 | 270 | 2.0 | 13.0 | 0.00 | 0.00 | 0.00 | 38 | 1001.9 |
| 20260504213503 | 84 | 266 | 4.0 | 12.0 | 0.00 | 0.00 | 0.00 | 40 | 1002.0 |
| 20260504213016 | 84 | 241 | 3.0 | 10.0 | 0.00 | 0.00 | 0.00 | 38 | 1002.0 |
| 20260504212504 | 84 | 275 | 2.0 | 11.0 | 0.00 | 0.00 | 0.00 | 39 | 1002.0 |
| 20260504212005 | 84 | 250 | 4.0 | 11.0 | 0.00 | 0.00 | 0.00 | 38 | 1002.0 |
| 20260504211508 | 84 | 198 | 3.0 | 10.0 | 0.00 | 0.00 | 0.00 | 39 | 1002.1 |
| 20260504211004 | 84 | 44 | 2.0 | 10.0 | 0.00 | 0.00 | 0.00 | 40 | 1002.1 |
| 20260504210504 | 84 | 234 | 4.0 | 10.0 | 0.00 | 0.00 | 0.00 | 39 | 1002.2 |
| 20260504210012 | 84 | 258 | 4.0 | 10.0 | 0.00 | 0.00 | 0.00 | 38 | 1002.3 |
| 20260504205507 | 85 | 258 | 4.0 | 9.0 | 0.00 | 0.00 | 0.00 | 38 | 1002.4 |
| 20260504205003 | 85 | 237 | 3.0 | 11.0 | 0.00 | 0.00 | 0.00 | 37 | 1002.2 |
| 20260504204514 | 86 | 237 | 2.0 | 11.0 | 0.00 | 0.00 | 0.00 | 36 | 1002.4 |
| 20260504204003 | 86 | 214 | 3.0 | 9.0 | 0.00 | 0.00 | 0.00 | 38 | 1002.4 |
| 20260504203506 | 87 | 142 | 4.0 | 9.0 | 0.00 | 0.00 | 0.00 | 35 | 1002.5 |
| 20260504203014 | 87 | 282 | 2.0 | 10.0 | 0.00 | 0.00 | 0.00 | 37 | 1002.5 |
| 20260504202504 | 86 | 146 | 3.0 | 10.0 | 0.00 | 0.00 | 0.00 | 36 | 1002.4 |
| 20260504202005 | 87 | 170 | 2.0 | 9.0 | 0.00 | 0.00 | 0.00 | 36 | 1002.6 |
| 20260504201513 | 87 | 148 | 2.0 | 9.0 | 0.00 | 0.00 | 0.00 | 35 | 1002.7 |
| 20260504201005 | 87 | 243 | 2.0 | 9.0 | 0.00 | 0.00 | 0.00 | 36 | 1002.7 |
| 20260504200509 | 87 | 98 | 1.0 | 7.0 | 0.00 | 0.00 | 0.00 | 35 | 1002.7 |
| 20260504200012 | 86 | 172 | 3.0 | 13.0 | 0.00 | 0.00 | 0.00 | 36 | 1002.8 |
| 20260504195506 | 86 | 163 | 3.0 | 13.0 | 0.00 | 0.00 | 0.00 | 34 | 1002.9 |
| 20260504195003 | 86 | 255 | 2.0 | 9.0 | 0.00 | 0.00 | 0.00 | 35 | 1003.0 |
| 20260504194513 | 86 | 207 | 4.0 | 13.0 | 0.00 | 0.00 | 0.00 | 34 | 1003.0 |
| 20260504194003 | 86 | 206 | 2.0 | 16.0 | 0.00 | 0.00 | 0.00 | 35 | 1003.0 |
| 20260504193508 | 86 | 259 | 5.0 | 16.0 | 0.00 | 0.00 | 0.00 | 34 | 1003.1 |
| 20260504193015 | 86 | 254 | 3.0 | 10.0 | 0.00 | 0.00 | 0.00 | 33 | 1003.2 |
| 20260504192508 | 86 | 137 | 3.0 | 7.0 | 0.00 | 0.00 | 0.00 | 35 | 1003.4 |
| 20260504192007 | 86 | 224 | 3.0 | 7.0 | 0.00 | 0.00 | 0.00 | 36 | 1003.4 |
| 20260504191527 | 85 | 263 | 1.0 | 7.0 | 0.00 | 0.00 | 0.00 | 36 | 1003.4 |
| 20260504191006 | 85 | 275 | 1.0 | 9.0 | 0.00 | 0.00 | 0.00 | 35 | 1003.5 |
| 20260504190504 | 85 | 213 | 2.0 | 9.0 | 0.00 | 0.00 | 0.00 | 36 | 1003.5 |
| 20260504190016 | 85 | 304 | 3.0 | 8.0 | 0.00 | 0.00 | 0.00 | 36 | 1003.5 |
| 20260504185507 | 85 | 265 | 2.0 | 8.0 | 0.00 | 0.00 | 0.00 | 36 | 1003.6 |
| 20260504185007 | 85 | 261 | 2.0 | 8.0 | 0.00 | 0.00 | 0.00 | 35 | 1003.6 |
| 20260504184517 | 84 | 272 | 3.0 | 8.0 | 0.00 | 0.00 | 0.00 | 38 | 1003.6 |
| 20260504184007 | 84 | 285 | 2.0 | 9.0 | 0.00 | 0.00 | 0.00 | 37 | 1003.5 |
| 20260504183506 | 84 | 236 | 2.0 | 9.0 | 0.00 | 0.00 | 0.00 | 37 | 1003.7 |
| 20260504183017 | 84 | 232 | 3.0 | 9.0 | 0.00 | 0.00 | 0.00 | 36 | 1003.7 |
| 20260504182508 | 84 | 9 | 3.0 | 9.0 | 0.00 | 0.00 | 0.00 | 37 | 1003.7 |
| 20260504182009 | 83 | 272 | 2.0 | 9.0 | 0.00 | 0.00 | 0.00 | 37 | 1003.9 |
| 20260504181521 | 83 | 290 | 4.0 | 9.0 | 0.00 | 0.00 | 0.00 | 38 | 1004.0 |
| 20260504181007 | 83 | 138 | 1.0 | 8.0 | 0.00 | 0.00 | 0.00 | 39 | 1004.0 |
| 20260504180507 | 83 | 298 | 2.0 | 8.0 | 0.00 | 0.00 | 0.00 | 38 | 1004.2 |
| 20260504180020 | 82 | 151 | 1.0 | 7.0 | 0.00 | 0.00 | 0.00 | 39 | 1004.2 |
| 20260504175507 | 82 | 258 | 1.0 | 7.0 | 0.00 | 0.00 | 0.00 | 39 | 1004.2 |
| 20260504175006 | 81 | 249 | 1.0 | 8.0 | 0.00 | 0.00 | 0.00 | 41 | 1004.3 |
| 20260504174516 | 81 | 319 | 3.0 | 8.0 | 0.00 | 0.00 | 0.00 | 39 | 1004.2 |
| 20260504174007 | 81 | 259 | 1.0 | 8.0 | 0.00 | 0.00 | 0.00 | 39 | 1004.3 |
| 20260504173506 | 81 | 324 | 2.0 | 8.0 | 0.00 | 0.00 | 0.00 | 39 | 1004.2 |
| 20260504173015 | 81 | 247 | 1.0 | 8.0 | 0.00 | 0.00 | 0.00 | 38 | 1004.2 |
| 20260504172507 | 81 | 223 | 2.0 | 8.0 | 0.00 | 0.00 | 0.00 | 42 | 1004.2 |
| 20260504172008 | 81 | 254 | 1.0 | 8.0 | 0.00 | 0.00 | 0.00 | 41 | 1004.2 |
| 20260504171525 | 80 | 229 | 3.0 | 8.0 | 0.00 | 0.00 | 0.00 | 40 | 1004.3 |
| 20260504171010 | 80 | 242 | 2.0 | 7.0 | 0.00 | 0.00 | 0.00 | 41 | 1004.2 |
| 20260504170506 | 79 | 101 | 1.0 | 12.0 | 0.00 | 0.00 | 0.00 | 42 | 1004.2 |
| 20260504151007 | 71 | 247 | 5.0 | 12.0 | 0.00 | 0.00 | 0.00 | 50 | 1004.6 |
| 20260504150507 | 70 | 263 | 3.0 | 15.0 | 0.00 | 0.00 | 0.00 | 52 | 1004.7 |
| 20260504141009 | 67 | 234 | 3.0 | 10.0 | 0.00 | 0.00 | 0.00 | 54 | 1004.9 |
| 20260504140504 | 67 | 262 | 2.0 | 11.0 | 0.00 | 0.00 | 0.00 | 55 | 1005.0 |
| 20260504130506 | 63 | 275 | 2.0 | 10.0 | 0.00 | 0.00 | 0.00 | 59 | 1005.1 |
| 20260504110513 | 63 | 248 | 4.0 | 12.0 | 0.00 | 0.00 | 0.00 | 55 | 1005.1 |
| 20260504100506 | 64 | 266 | 3.0 | 10.0 | 0.00 | 0.00 | 0.00 | 52 | 1005.6 |
| 20260504082008 | 66 | 155 | 1.0 | 10.0 | 0.00 | 0.00 | 0.00 | 47 | 1006.5 |
| 20260504081519 | 66 | 241 | 4.0 | 10.0 | 0.00 | 0.00 | 0.00 | 47 | 1006.6 |
| 20260504081013 | 66 | 272 | 3.0 | 13.0 | 0.00 | 0.00 | 0.00 | 46 | 1006.7 |
| 20260504080505 | 66 | 262 | 2.0 | 13.0 | 0.00 | 0.00 | 0.00 | 47 | 1006.7 |